Wind_Speed
38 39 39 38 38 38 37 37 37 37 38 38 38 38 38 38 38 38 38 37 37 37 37 36 37 37 37 37 36 37 37 37 37 37 37 37 37 38 39 39 39 39 39
40 40 40 40 39 40 39 39 39 39 40 40 40 40 40 40 40 40 40 40 40 40 40 39 39 39 39 39 39 38 39 39 40 40 39 39 40 40 41 40 40 40 39
41 41 41 41 41 41 41 41 41 42 42 42 41 41 41 42 42 41 41 41 41 41 42 42 41 41 40 40 41 41 41 41 41 41 41 41 42 42 41 41 41 41 41
41 42 42 42 42 42 42 43 43 43 44 44 43 43 44 44 44 43 43 43 42 42 43 42 43 42 42 42 43 43 43 43 43 42 42 42 43 42 42 42 42 42 42
43 43 43 44 44 45 45 45 45 45 45 45 44 45 45 45 44 44 44 44 44 44 44 44 44 44 44 44 44 44 44 44 44 44 44 44 43 43 43 43 43 43 43
45 45 45 45 46 46 47 47 47 47 47 47 46 46 46 45 45 45 45 45 45 45 45 45 45 45 45 45 46 45 45 45 45 45 45 44 44 44 44 44 44 44 44
47 47 47 47 48 48 48 49 49 49 49 49 48 48 47 47 47 47 47 47 47 46 46 46 47 47 47 47 47 46 46 46 46 46 45 45 45 45 45 45 45 45 46
49 49 49 49 49 50 50 51 51 51 50 50 50 49 49 49 48 48 48 47 47 48 48 47 47 47 47 48 47 47 47 46 46 46 46 46 46 45 46 46 46 46 46
50 51 51 50 51 52 52 53 52 52 51 51 51 51 51 50 48 47 47 48 48 47 47 47 47 47 47 47 48 47 47 46 46 46 46 47 46 46 46 46 46 46 47
51 52 52 51 52 52 53 53 52 52 52 51 51 51 51 50 49 48 48 48 47 46 46 47 46 46 46 46 46 46 46 46 46 47 47 47 46 46 46 46 47 47 48
52 51 50 51 51 52 52 51 51 51 50 50 50 50 51 50 49 49 47 47 47 46 46 46 45 45 46 45 44 45 44 45 45 45 46 46 46 47 47 47 48 49 50
50 51 49 49 50 50 50 50 50 50 49 48 48 48 49 49 48 48 47 46 46 46 45 44 43 43 43 44 44 43 43 44 45 45 45 46 46 46 47 47 49 50 50
49 49 49 49 49 49 49 49 48 48 47 47 46 46 47 47 47 47 47 46 45 44 44 43 43 42 42 42 42 43 43 44 45 45 44 45 45 46 46 47 49 49 49
49 48 48 47 48 48 48 47 46 46 46 46 45 46 45 44 44 43 44 44 45 44 44 43 42 42 42 41 41 41 41 43 44 45 44 44 45 45 45 46 47 47 47
47 47 46 46 46 46 46 46 46 45 45 45 44 43 42 41 41 41 41 42 43 43 41 41 40 40 40 39 40 40 41 42 44 44 44 44 44 44 45 45 46 47 47
44 45 45 45 45 46 46 46 45 44 43 43 42 40 39 40 40 40 41 42 41 41 41 40 39 38 38 38 38 39 40 41 42 42 42 43 44 45 45 45 46 45 45
44 45 44 44 44 43 43 43 43 43 42 41 41 40 39 39 39 39 40 40 41 41 41 39 38 37 37 37 37 38 39 40 41 41 42 42 43 43 43 44 45 44 44
42 42 42 43 42 43 42 41 41 39 40 39 39 38 37 37 37 37 39 39 38 37 37 37 36 37 36 37 37 38 39 40 40 40 40 41 42 43 43 44 45 44 43
39 40 41 40 39 40 40 39 39 37 37 37 37 36 36 36 36 36 36 36 36 36 35 35 35 35 36 36 37 37 37 38 38 39 39 40 40 41 42 42 42 41 41
37 38 38 38 37 37 37 38 37 37 36 35 34 33 33 33 34 34 34 34 34 34 34 33 34 34 34 35 36 36 36 35 36 36 37 37 38 39 40 39 40 39 39
35 36 35 35 36 36 36 36 36 37 37 35 34 33 32 31 31 32 32 32 31 31 32 33 33 33 33 34 34 33 34 33 33 35 35 36 38 38 38 38 38 37 37
33 33 32 32 33 34 34 33 34 34 35 34 33 32 31 30 30 29 30 31 30 30 31 31 31 32 34 35 34 33 32 33 33 34 35 35 36 36 36 36 35 35 34
31 30 30 31 31 31 32 33 32 31 31 31 31 31 30 30 29 29 29 30 30 31 31 29 29 31 32 33 32 33 33 33 33 34 34 33 33 34 34 33 34 33 32
29 29 29 29 29 30 31 31 31 31 30 29 29 29 30 30 29 29 30 30 30 30 30 29 30 30 30 30 30 31 31 31 31 32 32 32 31 31 31 31 31 31 30
26 26 26 26 26 26 27 28 28 28 28 27 27 28 29 28 28 29 29 29 28 27 27 28 28 29 29 29 29 29 29 29 29 30 30 30 29 29 29 29 29 29 29
23 24 24 25 25 26 27 27 26 25 26 26 27 27 27 26 27 28 27 26 26 25 25 26 27 27 26 26 26 27 28 28 28 28 28 29 29 29 29 28 28 29 29
Wind_Direction
264 264 266 266 266 267 267 266 267 268 269 269 269 269 269 270 271 271 272 272 272 272 273 273 274 273 273 274 274 275 275 275 276 277 278 278 279 281 282 283 285 285 286
263 264 265 265 266 266 266 267 267 268 269 269 269 269 269 270 271 271 271 272 272 271 271 272 273 274 274 273 273 274 275 275 276 277 277 278 279 280 281 282 284 284 284
262 263 264 265 265 265 265 266 267 268 269 269 269 269 270 271 271 271 271 271 272 272 272 272 272 273 273 273 273 274 275 276 276 277 276 277 278 279 280 282 283 283 284
262 262 263 264 265 266 266 266 267 268 269 269 269 270 270 271 272 272 272 271 272 272 272 272 272 273 273 273 274 274 274 275 276 276 276 276 277 278 279 281 281 282 284
262 262 262 263 265 266 267 267 268 269 269 270 270 270 271 271 272 272 272 273 273 272 271 271 272 272 273 274 275 275 274 275 276 276 276 276 277 277 279 280 281 282 283
262 262 262 263 265 266 267 267 268 269 269 270 270 271 271 271 271 272 272 273 273 272 271 271 271 271 272 274 275 275 275 275 275 275 275 275 276 277 279 279 280 281 283
261 261 262 263 265 267 268 268 269 269 270 270 271 271 271 271 271 271 271 271 272 272 271 271 271 270 271 273 274 274 274 274 274 275 274 274 275 277 278 279 280 281 282
263 262 262 263 265 266 267 269 270 269 269 270 271 271 271 271 271 270 270 270 271 271 270 270 270 270 272 272 273 273 274 274 274 274 274 275 276 277 278 279 281 282 283
264 264 264 265 266 267 268 269 269 269 269 270 270 270 270 270 270 270 269 270 270 270 270 270 270 270 271 271 272 272 272 272 273 274 274 275 276 277 279 280 281 282 282
264 264 265 266 268 269 270 270 270 270 269 269 269 269 270 270 270 270 269 269 270 270 270 270 270 270 270 270 271 273 272 271 272 273 275 276 276 277 279 280 280 281 282
264 264 267 268 268 269 270 269 268 269 268 268 268 268 268 268 269 270 269 268 268 268 269 269 269 270 269 270 271 272 272 271 272 273 275 276 277 277 278 280 280 281 283
265 265 267 268 269 270 269 268 268 267 266 267 269 269 268 268 268 269 268 268 268 267 266 266 268 268 269 271 271 271 271 271 273 275 276 276 277 277 278 279 281 283 284
265 266 266 267 268 268 267 267 266 266 266 267 268 268 268 267 267 267 267 267 266 266 266 266 268 267 268 270 271 270 271 272 274 275 275 276 276 277 278 279 282 284 284
265 266 265 266 266 266 267 266 265 265 265 266 267 268 268 267 266 268 267 267 266 265 266 266 266 265 266 268 270 270 271 273 275 276 276 276 276 278 279 280 282 283 284
266 265 264 264 264 265 266 266 264 265 266 267 267 268 267 266 266 267 268 269 268 267 265 265 265 265 266 268 270 270 272 273 274 275 276 275 277 278 280 282 283 284 285
267 265 264 263 262 263 264 265 264 265 266 266 267 267 266 266 267 268 269 269 269 268 268 266 265 264 265 267 270 271 273 274 274 274 275 277 278 279 281 283 284 284 285
267 266 265 263 263 264 265 264 263 263 264 266 266 267 267 269 270 270 270 270 270 270 269 267 266 265 266 267 269 271 274 274 275 275 276 277 279 280 281 283 284 286 287
267 265 263 263 262 262 263 263 262 262 263 266 268 268 267 269 270 270 270 271 272 270 269 268 268 267 268 269 269 271 272 274 276 277 278 279 279 280 282 284 285 286 287
265 263 263 261 262 262 263 263 261 261 264 266 267 267 267 267 267 269 271 270 269 269 269 269 270 269 269 269 272 273 274 276 277 278 280 281 282 283 285 286 286 286 286
264 263 263 261 262 262 262 261 260 261 263 264 265 265 265 265 266 268 270 268 269 269 269 269 271 271 269 270 273 275 275 277 278 280 281 283 285 287 287 286 287 287 287
266 264 262 262 262 263 261 260 260 261 262 262 262 262 264 265 267 268 269 268 269 268 270 271 272 271 270 270 273 274 274 276 278 281 283 284 286 287 288 288 288 288 288
267 265 264 264 263 262 260 260 260 261 260 258 259 261 265 265 267 268 269 268 268 269 270 272 272 272 271 272 275 275 276 277 280 281 283 285 286 287 288 288 289 289 289
268 266 264 264 263 263 262 260 260 260 258 256 257 261 262 264 266 267 268 270 270 271 272 273 273 275 274 274 276 277 277 281 283 283 283 285 286 286 287 289 290 291 290
268 264 264 266 264 263 263 262 260 258 258 256 257 259 261 263 264 267 268 271 272 272 272 271 273 274 275 276 277 278 280 282 284 285 285 285 285 285 286 288 290 292 292
268 263 264 264 264 263 264 262 259 257 254 256 258 260 261 261 265 268 269 270 271 271 271 272 273 273 276 276 277 278 280 283 283 284 284 284 284 284 284 285 289 292 293
268 265 265 266 266 266 265 263 261 256 254 256 258 258 260 263 265 266 269 270 269 270 271 272 273 274 274 275 278 281 283 284 283 283 284 284 285 284 283 285 288 290 291
Height
5780 5781 5781 5781 5781 5780 5781 5780 5780 5780 5780 5780 5780 5779 5779 5778 5778 5778 5777 5777 5777 5777 5776 5776 5776 5776 5776 5776 5775 5775 5775 5775 5774 5774 5773 5772 5771 5770 5768 5767 5765 5763 5761
5771 5772 5772 5772 5772 5772 5772 5771 5771 5771 5771 5771 5771 5770 5770 5769 5769 5768 5768 5768 5767 5767 5767 5767 5767 5766 5766 5766 5766 5766 5766 5765 5765 5765 5764 5763 5762 5761 5759 5758 5756 5754 5752
5761 5762 5762 5763 5763 5762 5762 5762 5762 5762 5762 5761 5761 5761 5760 5760 5759 5759 5758 5758 5757 5757 5757 5757 5757 5757 5757 5756 5756 5756 5756 5756 5755 5755 5754 5754 5752 5751 5750 5748 5747 5745 5743
5751 5752 5752 5753 5753 5752 5752 5752 5752 5752 5751 5751 5751 5751 5750 5750 5749 5749 5748 5748 5747 5747 5747 5747 5747 5747 5747 5746 5746 5746 5745 5745 5745 5745 5744 5743 5742 5741 5740 5739 5737 5735 5733
5741 5742 5742 5742 5742 5742 5742 5742 5742 5741 5741 5740 5740 5740 5740 5739 5739 5738 5738 5737 5737 5736 5736 5736 5736 5736 5736 5736 5735 5735 5735 5735 5734 5734 5733 5733 5732 5731 5730 5728 5727 5725 5723
5731 5731 5731 5731 5731 5731 5731 5731 5731 5731 5730 5729 5729 5729 5729 5729 5728 5727 5727 5726 5725 5725 5725 5724 5724 5725 5725 5724 5724 5724 5723 5723 5723 5723 5722 5722 5721 5721 5719 5718 5717 5715 5713
5719 5720 5720 5720 5720 5720 5720 5720 5720 5719 5718 5718 5718 5717 5717 5717 5717 5716 5715 5714 5714 5713 5713 5713 5712 5713 5713 5713 5712 5712 5712 5712 5712 5712 5711 5711 5711 5710 5708 5707 5706 5704 5702
5708 5708 5708 5708 5708 5708 5708 5708 5707 5707 5707 5706 5705 5704 5705 5706 5704 5703 5702 5702 5701 5701 5700 5700 5700 5701 5701 5701 5701 5700 5700 5700 5700 5700 5700 5700 5699 5699 5697 5696 5694 5692 5690
5695 5695 5696 5696 5696 5696 5695 5695 5694 5694 5694 5693 5691 5691 5691 5692 5692 5692 5690 5689 5689 5689 5688 5688 5688 5688 5689 5688 5688 5688 5688 5689 5688 5688 5688 5688 5688 5687 5686 5684 5683 5681 5678
5682 5682 5683 5683 5682 5682 5681 5681 5680 5680 5680 5679 5679 5677 5677 5678 5678 5679 5679 5677 5676 5676 5676 5676 5676 5676 5676 5676 5676 5676 5676 5676 5676 5676 5677 5677 5676 5675 5674 5672 5671 5669 5667
5668 5669 5669 5669 5668 5667 5667 5667 5667 5666 5666 5665 5665 5665 5664 5664 5664 5664 5665 5666 5665 5664 5664 5664 5664 5664 5664 5664 5664 5664 5665 5665 5665 5665 5665 5665 5664 5664 5662 5660 5658 5656 5654
5655 5655 5655 5655 5655 5654 5653 5653 5653 5653 5652 5653 5653 5652 5652 5651 5651 5650 5651 5653 5653 5653 5652 5652 5652 5652 5652 5652 5652 5653 5653 5653 5653 5653 5653 5653 5653 5652 5651 5649 5646 5644 5641
5642 5642 5642 5642 5642 5641 5641 5641 5641 5640 5640 5640 5640 5640 5639 5639 5638 5639 5639 5639 5640 5641 5641 5641 5641 5641 5641 5641 5641 5642 5643 5643 5643 5642 5642 5642 5641 5640 5639 5637 5633 5631 5628
5628 5629 5629 5629 5629 5629 5628 5628 5629 5629 5629 5629 5629 5628 5628 5628 5627 5627 5627 5627 5628 5629 5630 5631 5630 5630 5631 5631 5631 5632 5632 5632 5632 5632 5631 5630 5630 5628 5626 5624 5621 5618 5616
5615 5615 5616 5616 5616 5616 5617 5617 5617 5617 5618 5618 5618 5617 5617 5617 5617 5617 5616 5616 5616 5616 5618 5619 5620 5620 5620 5621 5621 5622 5622 5622 5621 5621 5620 5619 5618 5616 5614 5612 5609 5606 5603
5601 5602 5603 5604 5604 5604 5605 5605 5606 5607 5607 5607 5607 5607 5607 5607 5607 5607 5606 5606 5605 5605 5606 5608 5609 5610 5610 5611 5612 5612 5612 5611 5610 5609 5608 5607 5606 5604 5602 5600 5597 5594 5592
5589 5590 5591 5592 5592 5593 5594 5594 5595 5596 5596 5597 5597 5597 5597 5597 5596 5596 5596 5596 5595 5595 5596 5597 5598 5600 5601 5601 5601 5601 5601 5600 5599 5598 5597 5596 5594 5592 5590 5588 5585 5582 5580
5577 5578 5579 5580 5581 5582 5583 5583 5584 5585 5586 5587 5587 5587 5587 5587 5587 5587 5587 5586 5585 5585 5587 5588 5589 5591 5591 5592 5592 5591 5591 5590 5589 5588 5586 5585 5583 5581 5579 5577 5574 5572 5569
5566 5567 5568 5569 5570 5571 5572 5573 5574 5575 5577 5577 5578 5578 5579 5579 5579 5578 5578 5577 5577 5577 5578 5579 5581 5582 5582 5582 5582 5582 5581 5580 5578 5577 5576 5574 5572 5570 5568 5566 5563 5561 5558
5556 5557 5558 5559 5560 5561 5562 5563 5564 5566 5567 5568 5569 5569 5570 5570 5570 5570 5570 5570 5570 5570 5571 5571 5572 5573 5573 5573 5573 5572 5572 5570 5569 5567 5566 5563 5561 5559 5558 5555 5553 5551 5548
5546 5547 5548 5549 5550 5551 5552 5553 5555 5556 5558 5559 5560 5561 5562 5562 5562 5562 5562 5562 5562 5563 5563 5563 5564 5564 5564 5564 5564 5563 5562 5561 5560 5558 5557 5554 5552 5550 5548 5545 5543 5540 5538
5537 5538 5539 5540 5541 5542 5543 5544 5546 5547 5549 5550 5552 5553 5554 5554 5554 5554 5555 5555 5555 5555 5555 5555 5555 5555 5555 5555 5554 5553 5553 5553 5552 5550 5548 5546 5543 5541 5538 5536 5533 5531 5529
5529 5530 5531 5532 5533 5533 5534 5536 5537 5539 5540 5542 5544 5545 5546 5546 5547 5547 5547 5548 5547 5547 5547 5547 5547 5546 5546 5546 5546 5545 5544 5543 5542 5541 5539 5537 5534 5532 5529 5527 5524 5522 5520
5522 5522 5524 5524 5525 5526 5527 5527 5529 5530 5532 5534 5535 5537 5538 5539 5539 5539 5540 5540 5539 5539 5539 5539 5538 5538 5537 5537 5537 5537 5536 5535 5534 5532 5530 5529 5526 5524 5522 5519 5516 5514 5511
5515 5515 5516 5517 5518 5519 5519 5520 5521 5522 5524 5526 5528 5529 5530 5531 5532 5532 5532 5532 5532 5531 5530 5530 5530 5530 5529 5529 5528 5528 5527 5526 5525 5523 5521 5520 5518 5517 5515 5512 5509 5506 5503
5509 5509 5510 5510 5511 5512 5512 5512 5513 5515 5517 5519 5521 5522 5523 5524 5524 5524 5524 5524 5524 5523 5523 5522 5522 5521 5521 5521 5520 5519 5519 5518 5517 5516 5513 5511 5510 5508 5507 5505 5502 5498 5495